TimeCEST,TemperatureF,Dew PointF,Humidity,Sea Level PressureIn,VisibilityMPH,Wind Direction,Wind SpeedMPH,Gust SpeedMPH,PrecipitationIn,Events,Conditions,WindDirDegrees,DateUTC
12:15 AM,64.4,62.6,94,29.89,5.0,NE,5.8,-,N/A,,Scattered Clouds,50,2012-09-19 22:15:00
12:45 AM,64.4,62.6,94,29.89,5.6,SE,3.5,-,N/A,,Scattered Clouds,140,2012-09-19 22:45:00
1:15 AM,66.2,62.6,88,29.89,6.2,WSW,1.2,-,N/A,,Scattered Clouds,240,2012-09-19 23:15:00
1:45 AM,66.2,62.6,88,29.89,6.2,South,2.3,-,N/A,,Scattered Clouds,180,2012-09-19 23:45:00
2:15 AM,66.2,62.6,88,29.89,6.2,South,2.3,-,N/A,,Scattered Clouds,180,2012-09-20 00:15:00
2:45 AM,66.2,62.6,88,29.89,6.2,South,1.2,-,N/A,,Scattered Clouds,180,2012-09-20 00:45:00
3:15 AM,66.2,62.6,88,29.89,6.2,Calm,Calm,-,N/A,,Scattered Clouds,0,2012-09-20 01:15:00
3:45 AM,64.4,62.6,94,29.89,6.2,Calm,Calm,-,N/A,,Scattered Clouds,0,2012-09-20 01:45:00
4:15 AM,64.4,62.6,94,29.89,6.2,Calm,Calm,-,N/A,,Scattered Clouds,0,2012-09-20 02:15:00
4:45 AM,64.4,62.6,94,29.89,6.2,Calm,Calm,-,N/A,,Partly Cloudy,0,2012-09-20 02:45:00
5:15 AM,64.4,60.8,88,29.89,2.5,East,1.2,-,N/A,,Partly Cloudy,80,2012-09-20 03:15:00
5:45 AM,64.4,60.8,88,29.89,0.9,North,2.3,-,N/A,Fog,Fog,360,2012-09-20 03:45:00
6:15 AM,62.6,60.8,94,29.92,1.2,NNE,2.3,-,N/A,,Scattered Clouds,20,2012-09-20 04:15:00
6:45 AM,62.6,60.8,94,29.92,0.4,North,2.3,-,N/A,Fog,Fog,10,2012-09-20 04:45:00
7:15 AM,62.6,60.8,94,29.95,1.9,NNE,3.5,-,N/A,,Scattered Clouds,20,2012-09-20 05:15:00
7:45 AM,62.6,60.8,94,29.95,1.9,NNE,2.3,-,N/A,,Scattered Clouds,30,2012-09-20 05:45:00
8:15 AM,62.6,60.8,94,29.95,1.9,NNE,6.9,-,N/A,,Scattered Clouds,20,2012-09-20 06:15:00
8:45 AM,62.6,60.8,94,29.95,1.9,North,8.1,-,N/A,,Mostly Cloudy,10,2012-09-20 06:45:00
9:15 AM,62.6,60.8,94,29.98,2.5,NE,5.8,-,N/A,,Mostly Cloudy,40,2012-09-20 07:15:00
9:45 AM,62.6,60.8,94,29.98,3.7,NNE,5.8,-,N/A,,Scattered Clouds,30,2012-09-20 07:45:00
10:15 AM,64.4,62.6,94,30.01,5.0,NE,8.1,-,N/A,,Partly Cloudy,50,2012-09-20 08:15:00
10:45 AM,68.0,64.4,88,30.01,6.2,NE,6.9,-,N/A,,Scattered Clouds,40,2012-09-20 08:45:00
11:15 AM,68.0,62.6,83,30.01,6.2,North,8.1,-,N/A,,Partly Cloudy,10,2012-09-20 09:15:00
11:45 AM,69.8,62.6,78,30.01,6.2,NNW,8.1,-,N/A,,Partly Cloudy,340,2012-09-20 09:45:00
12:15 PM,73.4,62.6,69,30.01,6.2,NNW,10.4,-,N/A,,Partly Cloudy,330,2012-09-20 10:15:00
12:45 PM,73.4,62.6,69,30.01,6.2,North,8.1,-,N/A,,Partly Cloudy,350,2012-09-20 10:45:00
1:15 PM,75.2,60.8,61,30.04,6.2,North,8.1,-,N/A,,Partly Cloudy,10,2012-09-20 11:15:00
1:45 PM,75.2,60.8,61,30.04,6.2,North,8.1,-,N/A,,Partly Cloudy,350,2012-09-20 11:45:00
2:15 PM,75.2,57.2,53,30.04,6.2,North,8.1,-,N/A,,Partly Cloudy,350,2012-09-20 12:15:00
2:45 PM,77.0,53.6,44,30.04,6.2,North,5.8,-,N/A,,Partly Cloudy,350,2012-09-20 12:45:00
3:15 PM,77.0,50.0,39,30.04,6.2,NW,12.7,-,N/A,,Partly Cloudy,320,2012-09-20 13:15:00
3:45 PM,77.0,46.4,34,30.04,6.2,NNW,8.1,-,N/A,,Partly Cloudy,330,2012-09-20 13:45:00
4:15 PM,77.0,46.4,34,30.04,6.2,NNW,6.9,-,N/A,,Partly Cloudy,340,2012-09-20 14:15:00
4:45 PM,77.0,46.4,34,30.04,6.2,North,9.2,-,N/A,,Partly Cloudy,350,2012-09-20 14:45:00
5:15 PM,75.2,44.6,34,30.04,6.2,NNW,8.1,-,N/A,,Partly Cloudy,330,2012-09-20 15:15:00
5:45 PM,75.2,42.8,31,30.04,-9999.0,NNW,8.1,-,N/A,,Clear,340,2012-09-20 15:45:00
6:15 PM,73.4,41.0,31,30.04,-9999.0,NNW,6.9,-,N/A,,Clear,330,2012-09-20 16:15:00
6:45 PM,73.4,42.8,33,30.04,-9999.0,NNW,6.9,-,N/A,,Clear,340,2012-09-20 16:45:00
7:15 PM,71.6,41.0,33,30.06,-9999.0,North,5.8,-,N/A,,Clear,360,2012-09-20 17:15:00
7:45 PM,68.0,41.0,37,30.06,-9999.0,North,5.8,-,N/A,,Clear,10,2012-09-20 17:45:00
8:15 PM,66.2,41.0,40,30.06,-9999.0,NNE,3.5,-,N/A,,Clear,30,2012-09-20 18:15:00
8:45 PM,66.2,42.8,43,30.09,-9999.0,NE,3.5,-,N/A,,Clear,50,2012-09-20 18:45:00
9:15 PM,62.6,41.0,45,30.09,-9999.0,North,4.6,-,N/A,,Clear,350,2012-09-20 19:15:00
9:45 PM,62.6,41.0,45,30.09,-9999.0,NNE,3.5,-,N/A,,Clear,20,2012-09-20 19:45:00
10:15 PM,60.8,42.8,52,30.09,-9999.0,NE,3.5,-,N/A,,Clear,40,2012-09-20 20:15:00
10:45 PM,60.8,42.8,52,30.12,-9999.0,East,3.5,-,N/A,,Clear,100,2012-09-20 20:45:00
11:15 PM,59.0,44.6,59,30.12,-9999.0,NE,2.3,-,N/A,,Clear,50,2012-09-20 21:15:00
11:45 PM,59.0,46.4,63,30.12,-9999.0,NNE,1.2,-,N/A,,Clear,20,2012-09-20 21:45:00